User: anonymous   Login
Location: ScottNC Observatory
(36.0892°N, 80.4832°W)
Time: 21:14:49
(UTC-05:00)
Language:

TIGRISAT - Orbit

View from above orbital plane
View from above orbital plane
View from above satellite
View from above satellite

Ground track
Ground track

The orbit data is extracted from the following two-line orbital elements,

1 40043U 14033AK  19320.16170031  .00000144  00000-0  28632-4 0  9990
2 40043  97.7340 181.4070 0059373 332.3301  27.4753 14.74312098290778
Epoch (UTC): 16 November 2019 03:52:50
Eccentricity: 0.0059373
inclination: 97.7340°
perigee height: 605 km
apogee height: 689 km
right ascension of ascending node: 181.4070°
argument of perigee: 332.3301°
revolutions per day: 14.74312098
mean anomaly at epoch: 27.4753°
orbit number at epoch: 29077

The dashed part of the orbit path shows where the satellite is in the earth's shadow,  

DLR